TimeAKST,TemperatureF,Dew PointF,Humidity,Sea Level PressureIn,VisibilityMPH,Wind Direction,Wind SpeedMPH,Gust SpeedMPH,PrecipitationIn,Events,Conditions,WindDirDegrees,DateUTC
12:16 AM,37.4,35.6,93,29.66,10.0,Calm,Calm,-,N/A,,Overcast,0,2013-01-23 09:16:00
12:36 AM,37.4,35.6,93,29.66,10.0,Calm,Calm,-,N/A,,Overcast,0,2013-01-23 09:36:00
12:56 AM,37.4,35.6,93,29.65,10.0,Calm,Calm,-,0.06,,Overcast,0,2013-01-23 09:56:00
1:16 AM,37.4,35.6,93,29.65,10.0,SW,4.6,-,0.02,,Overcast,220,2013-01-23 10:16:00
1:36 AM,37.4,35.6,93,29.65,10.0,Calm,Calm,-,0.03,,Overcast,0,2013-01-23 10:36:00
1:56 AM,37.4,35.6,93,29.65,10.0,Calm,Calm,-,0.04,,Overcast,0,2013-01-23 10:56:00
2:16 AM,37.4,35.6,93,29.65,10.0,Calm,Calm,-,0.02,,Overcast,0,2013-01-23 11:16:00
2:36 AM,35.6,33.8,93,29.66,9.0,Calm,Calm,-,0.02,,Overcast,0,2013-01-23 11:36:00
2:56 AM,37.4,35.6,93,29.65,10.0,Calm,Calm,-,0.03,,Overcast,0,2013-01-23 11:56:00
3:16 AM,35.6,33.8,93,29.65,10.0,WSW,3.5,-,N/A,,Overcast,250,2013-01-23 12:16:00
3:36 AM,37.4,35.6,93,29.65,10.0,SW,3.5,-,N/A,,Overcast,220,2013-01-23 12:36:00
3:56 AM,35.6,33.8,93,29.65,10.0,West,4.6,-,N/A,,Overcast,260,2013-01-23 12:56:00
4:16 AM,35.6,33.8,93,29.65,10.0,Calm,Calm,-,N/A,,Overcast,0,2013-01-23 13:16:00
4:36 AM,37.4,35.6,93,29.65,10.0,South,3.5,-,N/A,,Overcast,190,2013-01-23 13:36:00
4:56 AM,35.6,33.8,93,29.64,10.0,SW,3.5,-,N/A,,Overcast,230,2013-01-23 13:56:00
5:16 AM,37.4,33.8,87,29.65,6.0,WSW,4.6,-,N/A,,Overcast,250,2013-01-23 14:16:00
5:36 AM,35.6,33.8,93,29.65,10.0,WSW,5.8,-,N/A,,Overcast,240,2013-01-23 14:36:00
5:56 AM,37.4,35.6,93,29.65,10.0,WSW,3.5,-,N/A,,Overcast,250,2013-01-23 14:56:00
6:16 AM,37.4,33.8,87,29.65,10.0,SW,5.8,-,0.02,,Overcast,220,2013-01-23 15:16:00
6:36 AM,37.4,35.6,93,29.66,10.0,WSW,4.6,-,0.02,,Overcast,240,2013-01-23 15:36:00
6:56 AM,35.6,33.8,93,29.66,10.0,West,3.5,-,0.02,,Overcast,280,2013-01-23 15:56:00
7:16 AM,37.4,35.6,93,29.66,10.0,Calm,Calm,-,N/A,,Overcast,0,2013-01-23 16:16:00
7:36 AM,35.6,33.8,93,29.66,7.0,Calm,Calm,-,N/A,,Overcast,0,2013-01-23 16:36:00
7:56 AM,37.4,35.6,93,29.66,7.0,Calm,Calm,-,N/A,,Overcast,0,2013-01-23 16:56:00
8:16 AM,35.6,33.8,93,29.66,7.0,East,3.5,-,N/A,,Overcast,100,2013-01-23 17:16:00
8:36 AM,35.6,33.8,93,29.67,7.0,West,4.6,-,N/A,,Overcast,270,2013-01-23 17:36:00
8:56 AM,35.6,33.8,93,29.67,7.0,Calm,Calm,-,N/A,,Overcast,0,2013-01-23 17:56:00
9:16 AM,35.6,33.8,93,29.67,7.0,Calm,Calm,-,N/A,,Overcast,0,2013-01-23 18:16:00
9:36 AM,35.6,33.8,93,29.67,10.0,Calm,Calm,-,N/A,,Mostly Cloudy,0,2013-01-23 18:36:00
9:56 AM,37.4,35.6,93,29.67,10.0,West,3.5,-,N/A,,Mostly Cloudy,270,2013-01-23 18:56:00
10:16 AM,37.4,35.6,93,29.67,10.0,Calm,Calm,-,N/A,,Mostly Cloudy,0,2013-01-23 19:16:00
10:36 AM,37.4,35.6,93,29.68,10.0,SW,3.5,-,N/A,,Mostly Cloudy,230,2013-01-23 19:36:00
10:56 AM,37.4,35.6,93,29.68,10.0,Calm,Calm,-,N/A,,Mostly Cloudy,0,2013-01-23 19:56:00
11:16 AM,35.6,33.8,93,29.68,10.0,Calm,Calm,-,N/A,,Mostly Cloudy,0,2013-01-23 20:16:00
11:36 AM,37.4,35.6,93,29.67,10.0,Calm,Calm,-,N/A,,Mostly Cloudy,0,2013-01-23 20:36:00
11:56 AM,39.2,35.6,87,29.67,10.0,Calm,Calm,-,N/A,,Scattered Clouds,0,2013-01-23 20:56:00
12:16 PM,37.4,35.6,93,29.67,10.0,Calm,Calm,-,N/A,,Scattered Clouds,0,2013-01-23 21:16:00
12:36 PM,39.2,35.6,87,29.67,10.0,Calm,Calm,-,N/A,,Scattered Clouds,0,2013-01-23 21:36:00
12:56 PM,39.2,35.6,87,29.66,10.0,Calm,Calm,-,N/A,,Mostly Cloudy,0,2013-01-23 21:56:00
1:16 PM,39.2,35.6,87,29.66,10.0,Calm,Calm,-,N/A,,Mostly Cloudy,0,2013-01-23 22:16:00
1:36 PM,39.2,35.6,87,29.66,10.0,Calm,Calm,-,N/A,,Mostly Cloudy,0,2013-01-23 22:36:00
1:56 PM,39.2,35.6,87,29.66,10.0,Calm,Calm,-,N/A,,Mostly Cloudy,0,2013-01-23 22:56:00
2:16 PM,39.2,35.6,87,29.66,10.0,South,3.5,-,N/A,,Mostly Cloudy,170,2013-01-23 23:16:00
2:36 PM,39.2,35.6,87,29.66,10.0,Calm,Calm,-,N/A,,Mostly Cloudy,0,2013-01-23 23:36:00
2:56 PM,39.2,35.6,87,29.67,10.0,Calm,Calm,-,N/A,,Mostly Cloudy,0,2013-01-23 23:56:00
3:16 PM,39.2,35.6,87,29.67,10.0,Calm,Calm,-,0.01,,Mostly Cloudy,0,2013-01-24 00:16:00
3:36 PM,37.4,33.8,87,29.67,10.0,Calm,Calm,-,0.01,,Mostly Cloudy,0,2013-01-24 00:36:00
3:56 PM,37.4,35.6,93,29.67,10.0,Calm,Calm,-,0.01,,Overcast,0,2013-01-24 00:56:00
4:16 PM,37.4,35.6,93,29.67,10.0,Calm,Calm,-,0.02,,Overcast,0,2013-01-24 01:16:00
4:36 PM,37.4,35.6,93,29.67,10.0,Calm,Calm,-,0.02,,Overcast,0,2013-01-24 01:36:00
4:56 PM,37.4,35.6,93,29.67,10.0,Calm,Calm,-,0.02,,Overcast,0,2013-01-24 01:56:00
5:16 PM,37.4,35.6,93,29.68,10.0,Calm,Calm,-,0.01,,Overcast,0,2013-01-24 02:16:00
5:36 PM,37.4,35.6,93,29.68,10.0,Calm,Calm,-,0.01,,Overcast,0,2013-01-24 02:36:00
5:56 PM,37.4,33.8,87,29.68,10.0,Calm,Calm,-,0.01,,Overcast,0,2013-01-24 02:56:00
6:16 PM,35.6,33.8,93,29.69,10.0,Calm,Calm,-,0.01,,Overcast,0,2013-01-24 03:16:00
6:36 PM,35.6,33.8,93,29.69,10.0,Calm,Calm,-,0.02,,Overcast,0,2013-01-24 03:36:00
6:56 PM,35.6,33.8,93,29.70,10.0,Calm,Calm,-,0.02,,Overcast,0,2013-01-24 03:56:00
7:16 PM,35.6,33.8,93,29.70,10.0,SW,3.5,-,N/A,,Overcast,230,2013-01-24 04:16:00
7:36 PM,35.6,33.8,93,29.71,10.0,SW,3.5,-,0.01,,Overcast,220,2013-01-24 04:36:00
7:56 PM,35.6,33.8,93,29.71,10.0,Calm,Calm,-,0.02,,Overcast,0,2013-01-24 04:56:00
8:16 PM,35.6,33.8,93,29.72,10.0,Calm,Calm,-,0.01,,Overcast,0,2013-01-24 05:16:00
8:36 PM,35.6,33.8,93,29.73,10.0,Calm,Calm,-,0.01,,Overcast,0,2013-01-24 05:36:00
8:56 PM,35.6,33.8,93,29.73,10.0,Calm,Calm,-,0.01,,Overcast,0,2013-01-24 05:56:00
9:16 PM,35.6,33.8,93,29.74,10.0,Calm,Calm,-,0.01,,Overcast,0,2013-01-24 06:16:00
9:36 PM,35.6,33.8,93,29.74,10.0,SW,3.5,-,0.01,,Overcast,220,2013-01-24 06:36:00
9:56 PM,35.6,33.8,93,29.75,10.0,Calm,Calm,-,0.01,,Overcast,0,2013-01-24 06:56:00
10:16 PM,35.6,33.8,93,29.75,10.0,Calm,Calm,-,N/A,,Overcast,0,2013-01-24 07:16:00
10:36 PM,35.6,33.8,93,29.75,10.0,Calm,Calm,-,N/A,,Overcast,0,2013-01-24 07:36:00
10:56 PM,35.6,33.8,93,29.76,10.0,Calm,Calm,-,N/A,,Overcast,0,2013-01-24 07:56:00
11:16 PM,35.6,33.8,93,29.76,10.0,SSW,3.5,-,0.01,,Overcast,210,2013-01-24 08:16:00
11:36 PM,35.6,33.8,93,29.77,10.0,Calm,Calm,-,0.01,,Overcast,0,2013-01-24 08:36:00
11:56 PM,35.6,33.8,93,29.77,10.0,Calm,Calm,-,0.01,,Overcast,0,2013-01-24 08:56:00